E 5 W B (EGNOS/PRN 121)

Last updated on Mon Apr 28 2025 00:03:18 GMT+0000 (Coordinated Universal Time)

1 44624U 19067A 25117.31454594 -.00000040 00000+0 00000+0 0 9997 2 44624 0.0770 33.0919 0002910 2.3276 288.3410 1.00271782 20267
UTC large
Height (km)
Speed (km/s)
/
Latitude / Longitude
Inclination (degrees)
Orbital Period (minutes)
Azimuth
Elevation
Range (km)
Doppler Factor

Next 0 passes for location: London (51.5072 / 0.1276)

Sorry there are no passes over London.
E 5 W B (EGNOS/PRN 121)